Location: Cahas Mountain Overlook
(37.0833°N, 80.1000°W)
Time: 20:11:33
(UTC-05:00)

ISS - Pass Details

Date: 05 December 2022
Orbit: 412 x 419 km, 51.6° (Epoch: 31 January)

Event Time Altitude Azimuth Distance (km) Brightness Sun altitude
Rises 19:21:19 0° 299° (WNW) 2,345 0.8 -26.9°
Reaches altitude 10° 19:23:38 10° 285° (WNW) 1,481 -0.2 -27.4°
Enters shadow 19:25:26 21° 257° (WSW) 974 -1.2 -27.7°
